Flag for Slovakia Weather past 2 weeks in Bratislava, Slovakia

Now
57 °F

Clear.


Feels Like: 57 °F
Forecast: 59 / 71 °F
Wind: 2 mph from Northeast

Location: Bratislava Ivanka

Current Time: Aug 30, 2014 at 6:16:15 AM

Latest Report: Aug 30, 2014 at 5:30 AM


Visibility: 10 mi

Pressure: 30.07 "Hg

Humidity: 88%

Dew point: 54 °F

Location of BratislavaLocation

Historic Weather in Bratislava — Graph

°F

Bratislava temperature yesterday

Maximum temperature yesterday: 77 °F (at 4:00 PM)
Minimum temperature yesterday: 48 °F (at 6:00 AM)
Average temperature yesterday: 62 °F

Past Weeks' High & Low Weather Summary

 TemperatureHumidityPressure
High77 °F (Aug 15, 4:30 PM)94% (Aug 18, 6:00 AM)30.15 "Hg (Aug 18, 6:00 AM)
Low48 °F (Aug 29, 6:00 AM)33% (Aug 28, 4:00 PM)29.74 "Hg (Aug 26, 5:30 PM)
Average63 °F71%29.98 "Hg
* Reported Aug 15 5:00 AM — Aug 30 5:00 AM, Bratislava, Weather by CustomWeather, © 2014

Note: Actual official high and low records may vary slightly from our data, if they occured in-between our weather recording intervals... More about our weather records

Advertising

Bratislava weather history for previous 24 hours

 ConditionsComfort  
Time TempWeatherWind HumidityBarometerVisibility
5:00 AM
Aug 30
55 °FClear.1 mph94%30.07 "Hg10 mi
4:30 AM55 °FClear.2 mph88%30.07 "Hg10 mi
4:00 AM55 °FClear.1 mph88%30.07 "Hg10 mi
3:30 AM55 °FClear.2 mph88%30.07 "Hg10 mi
3:00 AM55 °FClear.2 mph88%30.07 "Hg10 mi
2:30 AM57 °FClear.2 mph88%30.07 "Hg10 mi
2:00 AM55 °FClear.2 mph88%30.07 "Hg10 mi
1:30 AM57 °FClear.2 mph88%30.07 "Hg10 mi
1:00 AM57 °FClear.2 mph88%30.07 "Hg10 mi
12:30 AM59 °FClear.No wind82%30.07 "Hg10 mi
12:00 AM59 °FClear.2 mph82%30.07 "Hg10 mi
11:30 PM
Aug 29
61 °FClear.2 mph83%30.07 "Hg10 mi
11:00 PM61 °FClear.2 mph83%30.07 "Hg10 mi
9:00 PM64 °FClear.3 mph73%30.07 "Hg10 mi
8:30 PM64 °FSunny.6 mph73%30.07 "Hg10 mi
8:00 PM66 °FSunny.5 mph68%30.04 "Hg10 mi
7:30 PM70 °FSunny.5 mph57%30.04 "Hg10 mi
7:00 PM72 °FSunny.5 mph53%30.04 "Hg10 mi
6:30 PM73 °FSunny.6 mph50%30.04 "Hg10 mi
6:00 PM73 °FSunny.5 mph50%30.04 "Hg10 mi
5:30 PM75 °FSunny.7 mph47%30.07 "Hg10 mi
5:00 PM75 °FPassing clouds.6 mph44%30.07 "HgN/A
4:30 PM75 °FSunny.7 mph44%30.07 "Hg10 mi
4:00 PM77 °FPassing clouds.7 mph44%30.07 "HgN/A
3:30 PM75 °FPassing clouds.8 mph41%30.07 "HgN/A
3:00 PM75 °FPassing clouds.10 mph44%30.07 "HgN/A
2:30 PM75 °FPassing clouds.8 mph44%30.09 "HgN/A
2:00 PM73 °FPassing clouds.8 mph44%30.09 "HgN/A
1:30 PM73 °FPassing clouds.9 mph44%30.09 "HgN/A
1:00 PM72 °FPassing clouds.8 mph50%30.09 "HgN/A
12:30 PM72 °FPassing clouds.7 mph57%30.09 "HgN/A
12:00 PM72 °FSunny.7 mph50%30.12 "Hg10 mi
11:30 AM70 °FPassing clouds.5 mph57%30.12 "HgN/A
11:00 AM66 °FPassing clouds.5 mph60%30.12 "HgN/A
10:30 AM66 °FPassing clouds.6 mph60%30.12 "HgN/A
10:00 AM64 °FPassing clouds.3 mph60%30.12 "HgN/A
9:30 AM61 °FPassing clouds.6 mph68%30.12 "HgN/A
9:00 AM59 °FSunny.6 mph72%30.12 "Hg10 mi
8:30 AM57 °FSunny.7 mph77%30.15 "Hg10 mi
8:00 AM55 °FSunny.6 mph82%30.12 "Hg10 mi
7:30 AM54 °FSunny.3 mph82%30.12 "Hg10 mi
7:00 AM52 °FClear.3 mph82%30.12 "Hg10 mi
6:30 AM50 °FClear.2 mph82%30.12 "Hg10 mi
6:00 AM48 °FClear.5 mph87%30.12 "Hg10 mi
Weather by CustomWeather, © 2014

See weather overviewHow to use our weather pages